Time,TemperatureF,DewpointF,PressureIn,WindDirection,WindDirectionDegrees,WindSpeedMPH,WindSpeedGustMPH,Humidity,HourlyPrecipIn,Conditions,Clouds,dailyrainin,SolarRadiationWatts/m^2,SoftwareType,DateUTC
2013-03-09 00:02:00,38.8,29.5,30.17,North,355,9.0,13.0,69,0.00,,,0.04,0.0,meteohub,2013-03-09 05:02:00,
2013-03-09 00:07:00,38.8,29.1,30.17,North,5,6.0,13.0,68,0.00,,,0.00,0.0,meteohub,2013-03-09 05:07:00,
2013-03-09 00:12:00,38.7,29.3,30.17,North,5,11.0,14.0,69,0.00,,,0.00,0.0,meteohub,2013-03-09 05:12:00,
2013-03-09 00:17:00,38.7,29.7,30.16,North,0,12.0,14.0,70,0.00,,,0.00,0.0,meteohub,2013-03-09 05:17:00,
2013-03-09 00:22:00,38.7,29.7,30.16,North,355,11.0,14.0,70,0.00,,,0.00,0.0,meteohub,2013-03-09 05:22:00,
2013-03-09 00:27:00,38.5,29.1,30.16,North,0,10.0,14.0,69,0.00,,,0.00,0.0,meteohub,2013-03-09 05:27:00,
2013-03-09 00:32:00,38.5,29.1,30.17,North,5,8.0,14.0,69,0.00,,,0.00,0.0,meteohub,2013-03-09 05:32:00,
2013-03-09 00:37:00,38.5,29.5,30.17,North,5,10.0,13.0,70,0.00,,,0.00,0.0,meteohub,2013-03-09 05:37:00,
2013-03-09 00:42:00,38.5,29.5,30.17,North,0,8.0,14.0,70,0.00,,,0.00,0.0,meteohub,2013-03-09 05:42:00,
2013-03-09 00:47:00,38.3,29.7,30.17,North,5,7.0,14.0,71,0.00,,,0.00,0.0,meteohub,2013-03-09 05:47:00,
2013-03-09 00:52:00,38.1,29.1,30.17,North,9,11.0,13.0,70,0.00,,,0.00,0.0,meteohub,2013-03-09 05:52:00,
2013-03-09 00:57:00,38.1,28.9,30.17,North,5,11.0,14.0,69,0.00,,,0.00,0.0,meteohub,2013-03-09 05:57:00,
2013-03-09 01:02:00,38.1,28.9,30.17,North,9,7.0,14.0,69,0.00,,,0.00,0.0,meteohub,2013-03-09 06:02:00,
2013-03-09 01:07:00,38.1,29.1,30.17,North,5,11.0,14.0,70,0.00,,,0.00,0.0,meteohub,2013-03-09 06:07:00,
2013-03-09 01:12:00,37.9,29.3,30.17,NNE,17,10.0,13.0,71,0.00,,,0.00,0.0,meteohub,2013-03-09 06:12:00,
2013-03-09 01:17:00,37.8,29.5,30.17,NNW,338,9.0,13.0,72,0.00,,,0.00,0.0,meteohub,2013-03-09 06:17:00,
2013-03-09 01:22:00,37.6,29.3,30.17,NNE,13,8.0,12.0,72,0.00,,,0.00,0.0,meteohub,2013-03-09 06:22:00,
2013-03-09 01:27:00,37.4,29.1,30.17,NNW,347,6.0,12.0,72,0.00,,,0.00,0.0,meteohub,2013-03-09 06:27:00,
2013-03-09 01:32:00,37.4,28.9,30.17,North,355,6.0,12.0,71,0.00,,,0.00,0.0,meteohub,2013-03-09 06:32:00,
2013-03-09 01:37:00,37.2,28.8,30.17,NNE,17,5.0,12.0,71,0.00,,,0.00,0.0,meteohub,2013-03-09 06:37:00,
2013-03-09 01:42:00,37.2,29.1,30.17,North,355,5.0,11.0,72,0.00,,,0.00,0.0,meteohub,2013-03-09 06:42:00,
2013-03-09 01:47:00,37.0,28.6,30.17,North,355,5.0,10.0,71,0.00,,,0.00,0.0,meteohub,2013-03-09 06:47:00,
2013-03-09 01:52:00,37.0,28.6,30.17,NNW,347,6.0,9.0,71,0.00,,,0.00,0.0,meteohub,2013-03-09 06:52:00,
2013-03-09 01:57:00,37.0,28.2,30.17,North,5,6.0,9.0,70,0.00,,,0.00,0.0,meteohub,2013-03-09 06:57:00,
2013-03-09 02:02:00,37.0,28.6,30.17,NNE,15,7.0,9.0,71,0.00,,,0.00,0.0,meteohub,2013-03-09 07:02:00,
2013-03-09 02:07:00,36.9,28.4,30.17,North,355,9.0,9.0,71,0.00,,,0.00,0.0,meteohub,2013-03-09 07:07:00,
2013-03-09 02:12:00,37.0,28.9,30.16,NNE,14,6.0,9.0,72,0.00,,,0.00,0.0,meteohub,2013-03-09 07:12:00,
2013-03-09 02:17:00,37.0,28.9,30.17,North,5,9.0,10.0,72,0.00,,,0.00,0.0,meteohub,2013-03-09 07:17:00,
2013-03-09 02:22:00,37.0,27.9,30.16,NNE,25,9.0,12.0,69,0.00,,,0.00,0.0,meteohub,2013-03-09 07:22:00,
2013-03-09 02:27:00,37.2,28.0,30.16,North,9,9.0,12.0,69,0.00,,,0.00,0.0,meteohub,2013-03-09 07:27:00,
2013-03-09 02:32:00,37.2,28.0,30.16,North,355,9.0,12.0,69,0.00,,,0.00,0.0,meteohub,2013-03-09 07:32:00,
2013-03-09 02:37:00,37.2,28.0,30.16,North,350,7.0,13.0,69,0.00,,,0.00,0.0,meteohub,2013-03-09 07:37:00,
2013-03-09 02:42:00,37.2,28.0,30.16,North,11,8.0,13.0,69,0.00,,,0.00,0.0,meteohub,2013-03-09 07:42:00,
2013-03-09 02:47:00,37.0,27.9,30.16,North,0,8.0,13.0,69,0.00,,,0.00,0.0,meteohub,2013-03-09 07:47:00,
2013-03-09 02:52:00,37.0,28.2,30.16,North,355,7.0,13.0,70,0.00,,,0.00,0.0,meteohub,2013-03-09 07:52:00,
2013-03-09 02:57:00,36.9,27.7,30.16,NNW,335,7.0,13.0,69,0.00,,,0.00,0.0,meteohub,2013-03-09 07:57:00,
2013-03-09 03:02:00,36.9,27.3,30.17,NNW,346,9.0,11.0,68,0.00,,,0.00,0.0,meteohub,2013-03-09 08:02:00,
2013-03-09 03:07:00,36.9,27.7,30.17,NNW,348,11.0,12.0,69,0.00,,,0.00,0.0,meteohub,2013-03-09 08:07:00,
2013-03-09 03:12:00,36.9,27.7,30.17,North,355,6.0,12.0,69,0.00,,,0.00,0.0,meteohub,2013-03-09 08:12:00,
2013-03-09 03:17:00,36.7,27.5,30.17,North,5,11.0,14.0,69,0.00,,,0.00,0.0,meteohub,2013-03-09 08:17:00,
2013-03-09 03:22:00,36.7,27.5,30.17,North,5,10.0,14.0,69,0.00,,,0.00,0.0,meteohub,2013-03-09 08:22:00,
2013-03-09 03:27:00,36.7,27.9,30.16,NNE,13,7.0,14.0,70,0.00,,,0.00,0.0,meteohub,2013-03-09 08:27:00,
2013-03-09 03:32:00,36.5,28.4,30.16,North,10,10.0,13.0,72,0.00,,,0.00,0.0,meteohub,2013-03-09 08:32:00,
2013-03-09 03:37:00,36.3,28.2,30.17,North,349,6.0,13.0,72,0.00,,,0.00,0.0,meteohub,2013-03-09 08:37:00,
2013-03-09 03:42:00,36.1,28.0,30.17,North,350,5.0,12.0,72,0.00,,,0.00,0.0,meteohub,2013-03-09 08:42:00,
2013-03-09 03:47:00,36.0,27.9,30.17,North,5,8.0,11.0,72,0.00,,,0.00,0.0,meteohub,2013-03-09 08:47:00,
2013-03-09 03:52:00,36.0,27.5,30.17,North,5,11.0,11.0,71,0.00,,,0.00,0.0,meteohub,2013-03-09 08:52:00,
2013-03-09 03:57:00,36.0,27.5,30.18,North,350,10.0,12.0,71,0.00,,,0.00,0.0,meteohub,2013-03-09 08:57:00,
2013-03-09 04:02:00,35.8,27.7,30.18,North,9,7.0,12.0,72,0.00,,,0.00,0.0,meteohub,2013-03-09 09:02:00,
2013-03-09 04:07:00,35.8,27.7,30.18,North,5,8.0,12.0,72,0.00,,,0.00,0.0,meteohub,2013-03-09 09:07:00,
2013-03-09 04:12:00,35.8,28.0,30.18,North,355,7.0,13.0,73,0.00,,,0.00,0.0,meteohub,2013-03-09 09:12:00,
2013-03-09 04:17:00,35.4,27.7,30.18,North,0,8.0,13.0,73,0.00,,,0.00,0.0,meteohub,2013-03-09 09:17:00,
2013-03-09 04:22:00,35.4,27.7,30.18,North,5,9.0,13.0,73,0.00,,,0.00,0.0,meteohub,2013-03-09 09:22:00,
2013-03-09 04:27:00,35.4,27.7,30.18,NNE,14,10.0,13.0,73,0.00,,,0.00,0.0,meteohub,2013-03-09 09:27:00,
2013-03-09 04:32:00,35.4,27.7,30.18,North,11,9.0,13.0,73,0.00,,,0.00,0.0,meteohub,2013-03-09 09:32:00,
2013-03-09 04:37:00,35.4,28.0,30.18,North,5,8.0,12.0,74,0.00,,,0.00,0.0,meteohub,2013-03-09 09:37:00,
2013-03-09 04:42:00,35.4,27.7,30.19,North,0,13.0,14.0,73,0.00,,,0.00,0.0,meteohub,2013-03-09 09:42:00,
2013-03-09 04:47:00,35.2,27.9,30.19,North,350,9.0,14.0,74,0.00,,,0.00,0.0,meteohub,2013-03-09 09:47:00,
2013-03-09 04:52:00,35.2,27.9,30.19,North,5,9.0,13.0,74,0.00,,,0.00,0.0,meteohub,2013-03-09 09:52:00,
2013-03-09 04:57:00,35.2,27.5,30.19,North,355,10.0,13.0,73,0.00,,,0.00,0.0,meteohub,2013-03-09 09:57:00,
2013-03-09 05:02:00,35.2,27.1,30.20,North,351,11.0,13.0,72,0.00,,,0.00,0.0,meteohub,2013-03-09 10:02:00,
2013-03-09 05:07:00,35.2,27.1,30.20,NNE,15,10.0,13.0,72,0.00,,,0.00,0.0,meteohub,2013-03-09 10:07:00,
2013-03-09 05:12:00,35.2,27.5,30.21,North,355,8.0,14.0,73,0.00,,,0.00,0.0,meteohub,2013-03-09 10:12:00,
2013-03-09 05:17:00,35.2,27.1,30.21,North,355,10.0,14.0,72,0.00,,,0.00,0.0,meteohub,2013-03-09 10:17:00,
2013-03-09 05:22:00,35.2,27.5,30.21,North,5,12.0,16.0,73,0.00,,,0.00,0.0,meteohub,2013-03-09 10:22:00,
2013-03-09 05:27:00,35.1,27.3,30.21,North,9,12.0,16.0,73,0.00,,,0.00,0.0,meteohub,2013-03-09 10:27:00,
2013-03-09 05:32:00,35.1,27.7,30.21,NNE,21,8.0,16.0,74,0.00,,,0.00,0.0,meteohub,2013-03-09 10:32:00,
2013-03-09 05:37:00,35.1,27.3,30.22,North,9,8.0,16.0,73,0.00,,,0.00,0.0,meteohub,2013-03-09 10:37:00,
2013-03-09 05:42:00,35.1,27.3,30.22,NNE,20,13.0,16.0,73,0.00,,,0.00,0.0,meteohub,2013-03-09 10:42:00,
2013-03-09 05:47:00,35.1,27.7,30.22,North,5,10.0,15.0,74,0.00,,,0.00,0.0,meteohub,2013-03-09 10:47:00,
2013-03-09 05:52:00,35.1,27.3,30.22,NNE,12,9.0,15.0,73,0.00,,,0.00,0.0,meteohub,2013-03-09 10:52:00,
2013-03-09 06:02:00,34.9,27.5,30.22,North,355,8.0,14.0,74,0.00,,,0.00,0.0,meteohub,2013-03-09 11:02:00,
2013-03-09 06:12:00,34.9,27.1,30.22,NNW,346,11.0,13.0,73,0.00,,,0.00,0.0,meteohub,2013-03-09 11:12:00,
2013-03-09 06:17:00,34.9,27.1,30.22,North,5,7.0,13.0,73,0.00,,,0.00,5.0,meteohub,2013-03-09 11:17:00,
2013-03-09 06:22:00,34.9,27.1,30.22,North,5,6.0,13.0,73,0.00,,,0.00,7.0,meteohub,2013-03-09 11:22:00,
2013-03-09 06:27:00,34.9,27.1,30.22,NNE,15,6.0,13.0,73,0.00,,,0.00,11.0,meteohub,2013-03-09 11:27:00,
2013-03-09 06:32:00,34.9,27.1,30.23,North,355,7.0,12.0,73,0.00,,,0.00,12.0,meteohub,2013-03-09 11:32:00,
2013-03-09 06:37:00,34.9,27.1,30.22,NNE,12,9.0,12.0,73,0.00,,,0.00,16.0,meteohub,2013-03-09 11:37:00,
2013-03-09 06:42:00,34.9,27.1,30.23,North,10,8.0,12.0,73,0.00,,,0.00,18.0,meteohub,2013-03-09 11:42:00,
2013-03-09 06:47:00,35.1,27.3,30.23,North,5,7.0,12.0,73,0.00,,,0.00,23.0,meteohub,2013-03-09 11:47:00,
2013-03-09 06:52:00,35.1,27.3,30.23,North,351,6.0,12.0,73,0.00,,,0.00,21.0,meteohub,2013-03-09 11:52:00,
2013-03-09 06:57:00,35.1,27.0,30.23,North,0,6.0,12.0,72,0.00,,,0.00,23.0,meteohub,2013-03-09 11:57:00,
2013-03-09 07:02:00,35.1,27.0,30.23,North,350,4.0,10.0,72,0.00,,,0.00,25.0,meteohub,2013-03-09 12:02:00,
2013-03-09 07:07:00,35.1,27.0,30.23,North,5,5.0,9.0,72,0.00,,,0.00,28.0,meteohub,2013-03-09 12:07:00,
2013-03-09 07:17:00,35.1,27.0,30.24,North,0,6.0,10.0,72,0.00,,,0.00,42.0,meteohub,2013-03-09 12:17:00,
2013-03-09 07:22:00,35.1,26.6,30.24,North,0,8.0,11.0,71,0.00,,,0.00,40.0,meteohub,2013-03-09 12:22:00,
2013-03-09 07:32:00,35.2,27.1,30.24,NNW,348,8.0,11.0,72,0.00,,,0.00,113.0,meteohub,2013-03-09 12:32:00,
2013-03-09 07:37:00,35.2,27.1,30.24,North,0,9.0,11.0,72,0.00,,,0.00,132.0,meteohub,2013-03-09 12:37:00,
2013-03-09 07:42:00,35.2,26.8,30.24,North,355,7.0,14.0,71,0.00,,,0.00,84.0,meteohub,2013-03-09 12:42:00,
2013-03-09 07:47:00,35.2,27.1,30.24,North,5,9.0,14.0,72,0.00,,,0.00,139.0,meteohub,2013-03-09 12:47:00,
2013-03-09 07:52:00,35.4,27.7,30.24,North,355,9.0,14.0,73,0.00,,,0.00,123.0,meteohub,2013-03-09 12:52:00,
2013-03-09 07:57:00,35.4,27.3,30.24,North,11,9.0,13.0,72,0.00,,,0.00,86.0,meteohub,2013-03-09 12:57:00,
2013-03-09 08:02:00,35.6,27.5,30.24,NNW,333,8.0,13.0,72,0.00,,,0.00,135.0,meteohub,2013-03-09 13:02:00,
2013-03-09 08:07:00,35.8,27.7,30.24,North,5,10.0,12.0,72,0.00,,,0.00,197.0,meteohub,2013-03-09 13:07:00,
2013-03-09 08:12:00,36.0,27.5,30.24,North,5,9.0,12.0,71,0.00,,,0.00,188.0,meteohub,2013-03-09 13:12:00,
2013-03-09 08:17:00,36.1,27.7,30.24,North,355,9.0,13.0,71,0.00,,,0.00,91.0,meteohub,2013-03-09 13:17:00,
2013-03-09 08:22:00,36.3,28.2,30.24,North,5,10.0,13.0,72,0.00,,,0.00,353.0,meteohub,2013-03-09 13:22:00,
2013-03-09 08:27:00,36.5,28.0,30.24,North,355,8.0,13.0,71,0.00,,,0.00,42.0,meteohub,2013-03-09 13:27:00,
2013-03-09 08:32:00,36.7,28.6,30.24,NNW,342,7.0,13.0,72,0.00,,,0.00,84.0,meteohub,2013-03-09 13:32:00,
2013-03-09 08:37:00,36.9,28.0,30.24,North,5,10.0,13.0,70,0.00,,,0.00,142.0,meteohub,2013-03-09 13:37:00,
2013-03-09 08:42:00,37.0,28.6,30.24,North,0,9.0,13.0,71,0.00,,,0.00,188.0,meteohub,2013-03-09 13:42:00,
2013-03-09 08:52:00,37.2,28.4,30.25,North,350,9.0,12.0,70,0.00,,,0.00,464.0,meteohub,2013-03-09 13:52:00,
2013-03-09 08:57:00,37.4,28.9,30.25,North,5,7.0,13.0,71,0.00,,,0.00,496.0,meteohub,2013-03-09 13:57:00,
2013-03-09 09:07:00,37.6,29.3,30.25,North,9,9.0,12.0,72,0.00,,,0.00,526.0,meteohub,2013-03-09 14:07:00,
2013-03-09 09:12:00,37.6,29.3,30.25,North,5,10.0,12.0,72,0.00,,,0.00,503.0,meteohub,2013-03-09 14:12:00,
2013-03-09 09:17:00,37.8,29.1,30.25,North,5,9.0,12.0,71,0.00,,,0.00,483.0,meteohub,2013-03-09 14:17:00,
2013-03-09 09:22:00,37.9,29.1,30.25,NNE,16,9.0,12.0,70,0.00,,,0.00,541.0,meteohub,2013-03-09 14:22:00,
2013-03-09 09:27:00,38.1,28.6,30.25,NNE,14,8.0,12.0,68,0.00,,,0.00,534.0,meteohub,2013-03-09 14:27:00,
2013-03-09 09:37:00,38.7,28.6,30.25,North,5,7.0,13.0,67,0.00,,,0.00,582.0,meteohub,2013-03-09 14:37:00,
2013-03-09 09:47:00,39.0,28.2,30.25,North,9,9.0,12.0,65,0.00,,,0.00,529.0,meteohub,2013-03-09 14:47:00,
2013-03-09 09:57:00,39.6,29.1,30.25,North,355,5.0,12.0,66,0.00,,,0.00,643.0,meteohub,2013-03-09 14:57:00,
2013-03-09 10:02:00,39.7,28.2,30.25,North,355,5.0,12.0,63,0.00,,,0.00,652.0,meteohub,2013-03-09 15:02:00,
2013-03-09 10:07:00,39.7,28.6,30.25,NNW,348,5.0,10.0,64,0.00,,,0.00,663.0,meteohub,2013-03-09 15:07:00,
2013-03-09 10:12:00,40.1,28.6,30.25,North,0,6.0,11.0,63,0.00,,,0.00,671.0,meteohub,2013-03-09 15:12:00,
2013-03-09 10:17:00,40.3,28.2,30.25,North,9,7.0,11.0,62,0.00,,,0.00,680.0,meteohub,2013-03-09 15:17:00,
2013-03-09 10:22:00,40.6,27.9,30.25,North,0,7.0,11.0,60,0.00,,,0.00,689.0,meteohub,2013-03-09 15:22:00,
2013-03-09 10:27:00,40.8,28.4,30.25,North,0,7.0,11.0,61,0.00,,,0.00,698.0,meteohub,2013-03-09 15:27:00,
2013-03-09 10:37:00,41.4,28.6,30.25,North,0,8.0,10.0,60,0.00,,,0.00,712.0,meteohub,2013-03-09 15:37:00,
2013-03-09 10:42:00,41.5,27.9,30.26,North,355,8.0,10.0,58,0.00,,,0.00,717.0,meteohub,2013-03-09 15:42:00,
2013-03-09 10:47:00,41.5,27.9,30.26,NNE,13,10.0,11.0,58,0.00,,,0.00,724.0,meteohub,2013-03-09 15:47:00,
2013-03-09 10:57:00,42.1,27.1,30.26,North,355,6.0,12.0,55,0.00,,,0.00,737.0,meteohub,2013-03-09 15:57:00,
2013-03-09 11:02:00,42.3,27.7,30.26,NNE,13,8.0,12.0,56,0.00,,,0.00,744.0,meteohub,2013-03-09 16:02:00,
2013-03-09 11:07:00,42.4,27.5,30.26,NNE,14,7.0,12.0,55,0.00,,,0.00,749.0,meteohub,2013-03-09 16:07:00,
2013-03-09 11:12:00,42.6,27.5,30.26,North,0,7.0,10.0,55,0.00,,,0.00,752.0,meteohub,2013-03-09 16:12:00,
2013-03-09 11:17:00,43.0,27.9,30.26,North,355,8.0,10.0,55,0.00,,,0.00,758.0,meteohub,2013-03-09 16:17:00,
2013-03-09 11:22:00,43.2,27.1,30.25,North,10,10.0,11.0,53,0.00,,,0.00,763.0,meteohub,2013-03-09 16:22:00,
2013-03-09 11:27:00,43.2,27.1,30.25,North,5,10.0,11.0,53,0.00,,,0.00,765.0,meteohub,2013-03-09 16:27:00,
2013-03-09 11:32:00,43.5,27.1,30.25,North,0,7.0,12.0,52,0.00,,,0.00,766.0,meteohub,2013-03-09 16:32:00,
2013-03-09 11:42:00,44.1,26.1,30.25,North,5,9.0,12.0,49,0.00,,,0.00,772.0,meteohub,2013-03-09 16:42:00,
2013-03-09 11:47:00,44.4,26.4,30.25,North,9,9.0,13.0,49,0.00,,,0.00,773.0,meteohub,2013-03-09 16:47:00,
2013-03-09 11:52:00,44.6,26.6,30.25,North,355,11.0,13.0,49,0.00,,,0.00,775.0,meteohub,2013-03-09 16:52:00,
2013-03-09 11:57:00,44.8,25.7,30.25,NNW,327,10.0,13.0,47,0.00,,,0.00,775.0,meteohub,2013-03-09 16:57:00,
2013-03-09 12:02:00,45.0,25.9,30.25,North,9,8.0,13.0,47,0.00,,,0.00,775.0,meteohub,2013-03-09 17:02:00,
2013-03-09 12:07:00,45.1,25.0,30.25,North,355,8.0,13.0,45,0.00,,,0.00,775.0,meteohub,2013-03-09 17:07:00,
2013-03-09 12:12:00,45.5,25.3,30.25,North,355,10.0,13.0,45,0.00,,,0.00,775.0,meteohub,2013-03-09 17:12:00,
2013-03-09 12:17:00,45.5,25.3,30.25,North,5,6.0,13.0,45,0.00,,,0.00,773.0,meteohub,2013-03-09 17:17:00,
2013-03-09 12:22:00,45.7,26.6,30.25,North,355,8.0,13.0,47,0.00,,,0.00,772.0,meteohub,2013-03-09 17:22:00,
2013-03-09 12:27:00,45.9,26.2,30.25,North,5,7.0,13.0,46,0.00,,,0.00,770.0,meteohub,2013-03-09 17:27:00,
2013-03-09 12:32:00,46.2,26.1,30.25,North,0,5.0,12.0,45,0.00,,,0.00,766.0,meteohub,2013-03-09 17:32:00,
2013-03-09 12:37:00,46.6,25.9,30.25,NNW,346,4.0,12.0,44,0.00,,,0.00,765.0,meteohub,2013-03-09 17:37:00,
2013-03-09 12:42:00,46.8,26.6,30.24,NNE,15,7.0,10.0,45,0.00,,,0.00,761.0,meteohub,2013-03-09 17:42:00,
2013-03-09 12:47:00,46.8,26.1,30.24,NNW,328,5.0,9.0,44,0.00,,,0.00,759.0,meteohub,2013-03-09 17:47:00,
2013-03-09 12:52:00,46.9,25.5,30.24,North,355,6.0,9.0,43,0.00,,,0.00,756.0,meteohub,2013-03-09 17:52:00,
2013-03-09 12:57:00,47.1,25.7,30.24,North,5,5.0,11.0,43,0.00,,,0.00,752.0,meteohub,2013-03-09 17:57:00,
2013-03-09 13:02:00,47.5,26.1,30.24,NNW,342,6.0,11.0,43,0.00,,,0.00,749.0,meteohub,2013-03-09 18:02:00,
2013-03-09 13:07:00,47.7,25.2,30.23,NNW,346,7.0,8.0,41,0.00,,,0.00,744.0,meteohub,2013-03-09 18:07:00,
2013-03-09 13:12:00,47.8,26.4,30.23,North,351,6.0,8.0,43,0.00,,,0.00,738.0,meteohub,2013-03-09 18:12:00,
2013-03-09 13:17:00,48.0,25.5,30.23,NNE,18,4.0,9.0,41,0.00,,,0.00,733.0,meteohub,2013-03-09 18:17:00,
2013-03-09 13:22:00,48.4,25.2,30.23,NNE,15,8.0,9.0,40,0.00,,,0.00,726.0,meteohub,2013-03-09 18:22:00,
2013-03-09 13:27:00,48.4,25.2,30.22,North,5,5.0,9.0,40,0.00,,,0.00,719.0,meteohub,2013-03-09 18:27:00,
2013-03-09 13:32:00,48.6,26.4,30.22,North,0,8.0,10.0,42,0.00,,,0.00,714.0,meteohub,2013-03-09 18:32:00,
2013-03-09 13:37:00,48.7,25.5,30.22,NW,313,6.0,10.0,40,0.00,,,0.00,703.0,meteohub,2013-03-09 18:37:00,
2013-03-09 13:42:00,48.9,26.8,30.22,North,5,6.0,10.0,42,0.00,,,0.00,694.0,meteohub,2013-03-09 18:42:00,
2013-03-09 13:47:00,48.9,25.0,30.22,NNW,347,5.0,11.0,39,0.00,,,0.00,687.0,meteohub,2013-03-09 18:47:00,
2013-03-09 13:57:00,48.9,25.0,30.22,NNW,348,6.0,11.0,39,0.00,,,0.00,670.0,meteohub,2013-03-09 18:57:00,
2013-03-09 14:02:00,49.3,27.1,30.22,North,355,6.0,8.0,42,0.00,,,0.00,657.0,meteohub,2013-03-09 19:02:00,
2013-03-09 14:07:00,49.5,25.5,30.21,North,355,6.0,8.0,39,0.00,,,0.00,649.0,meteohub,2013-03-09 19:07:00,
2013-03-09 14:12:00,49.5,26.1,30.21,North,0,4.0,8.0,40,0.00,,,0.00,638.0,meteohub,2013-03-09 19:12:00,
2013-03-09 14:17:00,49.8,24.6,30.21,North,0,6.0,10.0,37,0.00,,,0.00,626.0,meteohub,2013-03-09 19:17:00,
2013-03-09 14:27:00,50.4,25.0,30.21,NNE,19,4.0,9.0,37,0.00,,,0.00,606.0,meteohub,2013-03-09 19:27:00,
2013-03-09 14:32:00,50.4,25.7,30.21,North,355,6.0,9.0,38,0.00,,,0.00,589.0,meteohub,2013-03-09 19:32:00,
2013-03-09 14:37:00,50.5,25.2,30.22,North,0,4.0,9.0,37,0.00,,,0.00,584.0,meteohub,2013-03-09 19:37:00,
2013-03-09 14:42:00,50.7,26.1,30.22,North,355,4.0,9.0,38,0.00,,,0.00,557.0,meteohub,2013-03-09 19:42:00,
2013-03-09 14:47:00,51.1,25.7,30.22,North,355,6.0,6.0,37,0.00,,,0.00,568.0,meteohub,2013-03-09 19:47:00,
2013-03-09 14:52:00,51.1,27.0,30.22,North,5,5.0,8.0,39,0.00,,,0.00,545.0,meteohub,2013-03-09 19:52:00,
2013-03-09 15:02:00,51.1,25.7,30.22,NW,310,4.0,8.0,37,0.00,,,0.00,471.0,meteohub,2013-03-09 20:02:00,
2013-03-09 15:07:00,51.4,26.1,30.22,North,350,4.0,8.0,37,0.00,,,0.00,508.0,meteohub,2013-03-09 20:07:00,
2013-03-09 15:12:00,51.3,25.2,30.22,North,0,4.0,7.0,36,0.00,,,0.00,490.0,meteohub,2013-03-09 20:12:00,
2013-03-09 15:17:00,51.8,25.7,30.23,NW,325,4.0,8.0,36,0.00,,,0.00,478.0,meteohub,2013-03-09 20:17:00,
2013-03-09 15:22:00,52.2,27.9,30.23,North,5,3.0,8.0,39,0.00,,,0.00,445.0,meteohub,2013-03-09 20:22:00,
2013-03-09 15:32:00,52.0,26.6,30.23,North,9,4.0,8.0,37,0.00,,,0.00,445.0,meteohub,2013-03-09 20:32:00,
2013-03-09 15:37:00,52.2,26.1,30.23,NNW,339,4.0,8.0,36,0.00,,,0.00,429.0,meteohub,2013-03-09 20:37:00,
2013-03-09 15:42:00,52.2,27.3,30.23,North,0,5.0,8.0,38,0.00,,,0.00,413.0,meteohub,2013-03-09 20:42:00,
2013-03-09 15:47:00,52.2,25.3,30.23,North,355,3.0,8.0,35,0.00,,,0.00,394.0,meteohub,2013-03-09 20:47:00,
2013-03-09 15:52:00,52.3,25.5,30.23,North,355,3.0,8.0,35,0.00,,,0.00,355.0,meteohub,2013-03-09 20:52:00,
2013-03-09 15:57:00,52.3,24.8,30.23,North,355,5.0,7.0,34,0.00,,,0.00,315.0,meteohub,2013-03-09 20:57:00,
2013-03-09 16:02:00,52.5,25.7,30.23,North,5,4.0,7.0,35,0.00,,,0.00,211.0,meteohub,2013-03-09 21:02:00,
2013-03-09 16:07:00,52.2,28.6,30.24,North,355,4.0,7.0,40,0.00,,,0.00,130.0,meteohub,2013-03-09 21:07:00,
2013-03-09 16:17:00,51.1,28.8,30.24,NNE,21,3.0,7.0,42,0.00,,,0.00,202.0,meteohub,2013-03-09 21:17:00,
2013-03-09 16:22:00,50.4,29.8,30.24,NNE,28,2.0,5.0,45,0.00,,,0.00,232.0,meteohub,2013-03-09 21:22:00,
2013-03-09 16:27:00,50.4,29.8,30.24,NNE,30,2.0,4.0,45,0.00,,,0.00,237.0,meteohub,2013-03-09 21:27:00,
2013-03-09 16:32:00,49.6,28.6,30.24,NNE,31,2.0,4.0,44,0.00,,,0.00,209.0,meteohub,2013-03-09 21:32:00,
2013-03-09 16:37:00,49.5,28.9,30.24,NNE,30,3.0,4.0,45,0.00,,,0.00,188.0,meteohub,2013-03-09 21:37:00,
2013-03-09 16:42:00,48.9,29.1,30.24,NNE,30,1.0,4.0,46,0.00,,,0.00,88.0,meteohub,2013-03-09 21:42:00,
2013-03-09 16:47:00,48.7,27.3,30.24,NNE,30,0.0,3.0,43,0.00,,,0.00,107.0,meteohub,2013-03-09 21:47:00,
2013-03-09 16:52:00,48.9,28.0,30.24,NNE,30,0.0,3.0,44,0.00,,,0.00,39.0,meteohub,2013-03-09 21:52:00,
2013-03-09 16:57:00,48.9,28.6,30.24,NNE,30,0.0,2.0,45,0.00,,,0.00,104.0,meteohub,2013-03-09 21:57:00,
2013-03-09 17:02:00,48.9,29.1,30.24,NNE,30,0.0,2.0,46,0.00,,,0.00,83.0,meteohub,2013-03-09 22:02:00,
2013-03-09 17:07:00,48.7,26.6,30.24,NNE,30,0.0,2.0,42,0.00,,,0.00,67.0,meteohub,2013-03-09 22:07:00,
2013-03-09 17:12:00,48.6,29.3,30.24,NNE,30,0.0,2.0,47,0.00,,,0.00,49.0,meteohub,2013-03-09 22:12:00,
2013-03-09 17:17:00,48.6,28.2,30.25,NNE,30,0.0,2.0,45,0.00,,,0.00,30.0,meteohub,2013-03-09 22:17:00,
2013-03-09 17:22:00,48.4,28.6,30.25,NNE,30,0.0,2.0,46,0.00,,,0.00,26.0,meteohub,2013-03-09 22:22:00,
2013-03-09 17:27:00,47.8,27.0,30.25,NNE,30,0.0,1.0,44,0.00,,,0.00,23.0,meteohub,2013-03-09 22:27:00,
2013-03-09 17:37:00,47.8,29.1,30.25,NNE,30,0.0,0.0,48,0.00,,,0.00,14.0,meteohub,2013-03-09 22:37:00,
2013-03-09 17:42:00,46.8,29.7,30.25,NNE,30,0.0,1.0,51,0.00,,,0.00,11.0,meteohub,2013-03-09 22:42:00,
2013-03-09 17:47:00,45.7,30.0,30.25,NNE,30,0.0,1.0,54,0.00,,,0.00,9.0,meteohub,2013-03-09 22:47:00,
2013-03-09 17:52:00,45.1,30.0,30.26,NNE,30,0.0,1.0,55,0.00,,,0.00,5.0,meteohub,2013-03-09 22:52:00,
2013-03-09 17:57:00,44.4,29.7,30.26,NNE,30,0.0,0.0,56,0.00,,,0.00,0.0,meteohub,2013-03-09 22:57:00,
2013-03-09 18:02:00,43.9,29.7,30.26,NNE,31,0.0,2.0,57,0.00,,,0.00,0.0,meteohub,2013-03-09 23:02:00,
2013-03-09 18:07:00,43.5,29.7,30.26,NNE,31,0.0,2.0,58,0.00,,,0.00,0.0,meteohub,2013-03-09 23:07:00,
2013-03-09 18:12:00,43.3,30.4,30.27,NNE,31,0.0,2.0,60,0.00,,,0.00,0.0,meteohub,2013-03-09 23:12:00,
2013-03-09 18:17:00,42.6,30.6,30.27,NNE,31,0.0,1.0,62,0.00,,,0.00,0.0,meteohub,2013-03-09 23:17:00,
2013-03-09 18:27:00,42.3,30.9,30.27,NNE,31,0.0,2.0,64,0.00,,,0.00,0.0,meteohub,2013-03-09 23:27:00,
2013-03-09 18:32:00,41.9,31.5,30.27,NNE,31,0.0,2.0,66,0.00,,,0.00,0.0,meteohub,2013-03-09 23:32:00,
2013-03-09 18:42:00,41.4,30.6,30.27,NNE,31,0.0,1.0,65,0.00,,,0.00,0.0,meteohub,2013-03-09 23:42:00,
2013-03-09 18:47:00,41.5,30.7,30.27,NNE,31,0.0,1.0,65,0.00,,,0.00,0.0,meteohub,2013-03-09 23:47:00,
2013-03-09 18:52:00,41.2,30.0,30.27,NNE,31,0.0,1.0,64,0.00,,,0.00,0.0,meteohub,2013-03-09 23:52:00,
2013-03-09 18:57:00,40.1,30.0,30.28,NNE,31,1.0,2.0,67,0.00,,,0.00,0.0,meteohub,2013-03-09 23:57:00,
2013-03-09 19:02:00,39.7,30.0,30.28,NNE,31,0.0,2.0,68,0.00,,,0.00,0.0,meteohub,2013-03-10 00:02:00,
2013-03-09 19:07:00,39.2,29.8,30.28,NNE,31,0.0,2.0,69,0.00,,,0.00,0.0,meteohub,2013-03-10 00:07:00,
2013-03-09 19:12:00,39.0,30.0,30.28,NNE,31,0.0,2.0,70,0.00,,,0.00,0.0,meteohub,2013-03-10 00:12:00,
2013-03-09 19:17:00,38.8,29.5,30.29,NNE,32,0.0,2.0,69,0.00,,,0.00,0.0,meteohub,2013-03-10 00:17:00,
2013-03-09 19:22:00,39.0,29.3,30.29,SW,216,1.0,2.0,68,0.00,,,0.00,0.0,meteohub,2013-03-10 00:22:00,
2013-03-09 19:27:00,38.8,29.1,30.29,SSW,202,1.0,3.0,68,0.00,,,0.00,0.0,meteohub,2013-03-10 00:27:00,
2013-03-09 19:32:00,39.4,29.7,30.29,South,182,0.0,3.0,68,0.00,,,0.00,0.0,meteohub,2013-03-10 00:32:00,
2013-03-09 19:42:00,39.9,31.6,30.30,SW,219,1.0,4.0,72,0.00,,,0.00,0.0,meteohub,2013-03-10 00:42:00,
2013-03-09 19:47:00,39.7,32.2,30.30,NW,308,2.0,7.0,74,0.00,,,0.00,0.0,meteohub,2013-03-10 00:47:00,
2013-03-09 19:52:00,39.6,32.5,30.30,SSW,196,1.0,7.0,76,0.00,,,0.00,0.0,meteohub,2013-03-10 00:52:00,
2013-03-09 19:57:00,39.4,32.7,30.30,SSW,192,0.0,7.0,77,0.00,,,0.00,0.0,meteohub,2013-03-10 00:57:00,
2013-03-09 20:02:00,39.0,32.4,30.30,South,188,1.0,4.0,77,0.00,,,0.00,0.0,meteohub,2013-03-10 01:02:00,
2013-03-09 20:07:00,38.8,32.2,30.30,South,180,3.0,5.0,77,0.00,,,0.00,0.0,meteohub,2013-03-10 01:07:00,
2013-03-09 20:12:00,38.5,32.2,30.30,South,180,0.0,5.0,78,0.00,,,0.00,0.0,meteohub,2013-03-10 01:12:00,
2013-03-09 20:17:00,38.1,32.2,30.30,South,182,2.0,3.0,79,0.00,,,0.00,0.0,meteohub,2013-03-10 01:17:00,
2013-03-09 20:22:00,37.9,32.0,30.30,SSW,212,0.0,4.0,79,0.00,,,0.00,0.0,meteohub,2013-03-10 01:22:00,
2013-03-09 20:27:00,37.8,32.2,30.30,SSW,212,0.0,4.0,80,0.00,,,0.00,0.0,meteohub,2013-03-10 01:27:00,
2013-03-09 20:32:00,37.8,32.2,30.30,SSW,212,1.0,4.0,80,0.00,,,0.00,0.0,meteohub,2013-03-10 01:32:00,
2013-03-09 20:37:00,37.4,31.8,30.31,SSW,212,0.0,2.0,80,0.00,,,0.00,0.0,meteohub,2013-03-10 01:37:00,
2013-03-09 20:42:00,37.6,32.4,30.30,South,184,0.0,3.0,81,0.00,,,0.00,0.0,meteohub,2013-03-10 01:42:00,
2013-03-09 20:47:00,37.4,32.2,30.31,South,184,0.0,3.0,81,0.00,,,0.00,0.0,meteohub,2013-03-10 01:47:00,
2013-03-09 20:52:00,37.2,32.0,30.30,SSE,162,0.0,3.0,81,0.00,,,0.00,0.0,meteohub,2013-03-10 01:52:00,
2013-03-09 20:57:00,36.9,31.6,30.30,SSE,162,0.0,2.0,81,0.00,,,0.00,0.0,meteohub,2013-03-10 01:57:00,
2013-03-09 21:02:00,36.7,31.6,30.30,SSE,162,1.0,2.0,82,0.00,,,0.00,0.0,meteohub,2013-03-10 02:02:00,
2013-03-09 21:07:00,36.3,31.6,30.31,SSE,162,0.0,2.0,83,0.00,,,0.00,0.0,meteohub,2013-03-10 02:07:00,
2013-03-09 21:12:00,36.0,31.3,30.31,SSE,162,1.0,2.0,83,0.00,,,0.00,0.0,meteohub,2013-03-10 02:12:00,
2013-03-09 21:17:00,35.8,31.1,30.31,SSE,162,0.0,2.0,83,0.00,,,0.00,0.0,meteohub,2013-03-10 02:17:00,
2013-03-09 21:27:00,35.6,31.3,30.31,SSE,162,1.0,2.0,84,0.00,,,0.00,0.0,meteohub,2013-03-10 02:27:00,
2013-03-09 21:32:00,35.2,30.9,30.31,SW,232,0.0,3.0,84,0.00,,,0.00,0.0,meteohub,2013-03-10 02:32:00,
2013-03-09 21:42:00,34.9,31.1,30.31,SW,231,1.0,3.0,86,0.00,,,0.00,0.0,meteohub,2013-03-10 02:42:00,
2013-03-09 21:47:00,34.9,31.1,30.31,SW,231,0.0,2.0,86,0.00,,,0.00,0.0,meteohub,2013-03-10 02:47:00,
2013-03-09 21:52:00,34.9,31.1,30.31,SW,231,0.0,2.0,86,0.00,,,0.00,0.0,meteohub,2013-03-10 02:52:00,
2013-03-09 21:57:00,34.5,30.7,30.31,SW,231,0.0,2.0,86,0.00,,,0.00,0.0,meteohub,2013-03-10 02:57:00,
2013-03-09 22:02:00,34.5,30.7,30.32,SW,231,0.0,2.0,86,0.00,,,0.00,0.0,meteohub,2013-03-10 03:02:00,
2013-03-09 22:07:00,34.3,30.6,30.32,SSW,205,1.0,2.0,86,0.00,,,0.00,0.0,meteohub,2013-03-10 03:07:00,
2013-03-09 22:12:00,34.2,30.7,30.32,SSW,205,0.0,3.0,87,0.00,,,0.00,0.0,meteohub,2013-03-10 03:12:00,
2013-03-09 22:17:00,34.2,30.7,30.32,SSW,205,0.0,3.0,87,0.00,,,0.00,0.0,meteohub,2013-03-10 03:17:00,
2013-03-09 22:22:00,34.0,30.6,30.33,SSW,204,0.0,2.0,87,0.00,,,0.00,0.0,meteohub,2013-03-10 03:22:00,
2013-03-09 22:27:00,34.3,31.1,30.33,SSW,204,0.0,2.0,88,0.00,,,0.00,0.0,meteohub,2013-03-10 03:27:00,
2013-03-09 22:32:00,34.2,30.7,30.34,SSW,204,0.0,0.0,87,0.00,,,0.00,0.0,meteohub,2013-03-10 03:32:00,
2013-03-09 22:37:00,33.8,30.4,30.34,SSW,204,0.0,0.0,87,0.00,,,0.00,0.0,meteohub,2013-03-10 03:37:00,
2013-03-09 22:47:00,34.0,30.6,30.34,SSW,204,0.0,0.0,87,0.00,,,0.00,0.0,meteohub,2013-03-10 03:47:00,
2013-03-09 22:52:00,33.6,30.2,30.34,SSW,204,0.0,0.0,87,0.00,,,0.00,0.0,meteohub,2013-03-10 03:52:00,
2013-03-09 22:57:00,33.4,30.2,30.34,SSW,204,0.0,0.0,88,0.00,,,0.00,0.0,meteohub,2013-03-10 03:57:00,
2013-03-09 23:02:00,33.1,29.7,30.34,SSW,204,0.0,0.0,87,0.00,,,0.00,0.0,meteohub,2013-03-10 04:02:00,
2013-03-09 23:07:00,33.1,29.8,30.34,SSW,204,0.0,0.0,88,0.00,,,0.00,0.0,meteohub,2013-03-10 04:07:00,
2013-03-09 23:17:00,33.1,29.8,30.34,SSW,204,0.0,0.0,88,0.00,,,0.00,0.0,meteohub,2013-03-10 04:17:00,
2013-03-09 23:27:00,32.9,30.0,30.34,SSW,204,0.0,0.0,89,0.00,,,0.00,0.0,meteohub,2013-03-10 04:27:00,
2013-03-09 23:32:00,32.9,29.7,30.34,SSW,204,0.0,0.0,88,0.00,,,0.00,0.0,meteohub,2013-03-10 04:32:00,
2013-03-09 23:42:00,32.5,29.7,30.35,SSW,204,0.0,0.0,89,0.00,,,0.00,0.0,meteohub,2013-03-10 04:42:00,
2013-03-09 23:47:00,32.2,29.3,30.34,SSW,204,0.0,0.0,89,0.00,,,0.00,0.0,meteohub,2013-03-10 04:47:00,
2013-03-09 23:52:00,32.2,29.3,30.35,SSW,204,0.0,0.0,89,0.00,,,0.00,0.0,meteohub,2013-03-10 04:52:00,
2013-03-09 23:57:00,32.2,29.3,30.35,SSW,204,0.0,0.0,89,0.00,,,0.00,0.0,meteohub,2013-03-10 04:57:00,